TimeEDT,TemperatureF,Dew PointF,Humidity,Sea Level PressureIn,VisibilityMPH,Wind Direction,Wind SpeedMPH,Gust SpeedMPH,PrecipitationIn,Events,Conditions,WindDirDegrees,DateUTC
12:53 AM,72.0,62.1,71,29.93,10.0,SW,8.1,-,N/A,,Clear,220,2013-06-25 04:53:00
1:53 AM,71.1,63.0,75,29.92,9.0,SSW,5.8,-,N/A,,Clear,200,2013-06-25 05:53:00
2:53 AM,70.0,63.0,78,29.90,8.0,South,6.9,-,N/A,,Clear,190,2013-06-25 06:53:00
3:53 AM,70.0,63.0,78,29.88,8.0,SSW,6.9,-,N/A,,Clear,210,2013-06-25 07:53:00
4:53 AM,70.0,64.0,81,29.87,7.0,SSW,5.8,-,N/A,,Clear,200,2013-06-25 08:53:00
5:53 AM,71.1,64.9,81,29.88,6.0,SSW,6.9,-,N/A,,Haze,200,2013-06-25 09:53:00
6:53 AM,72.0,64.9,78,29.88,7.0,SW,9.2,-,N/A,,Overcast,220,2013-06-25 10:53:00
7:53 AM,73.0,66.0,79,29.88,7.0,SSW,9.2,-,N/A,,Partly Cloudy,210,2013-06-25 11:53:00
8:25 AM,73.4,66.2,78,29.90,7.0,SW,13.8,20.7,0.00,Rain,Light Rain,220,2013-06-25 12:25:00
8:42 AM,71.6,66.2,83,29.90,7.0,SW,15.0,-,0.00,,Overcast,220,2013-06-25 12:42:00
8:53 AM,72.0,66.0,81,29.89,7.0,SW,12.7,-,0.00,,Mostly Cloudy,220,2013-06-25 12:53:00
9:53 AM,73.9,66.9,79,29.89,10.0,SW,13.8,-,N/A,,Mostly Cloudy,230,2013-06-25 13:53:00
10:25 AM,75.2,66.2,73,29.90,10.0,WSW,12.7,-,N/A,,Overcast,240,2013-06-25 14:25:00
10:53 AM,75.0,68.0,79,29.88,7.0,WSW,11.5,-,N/A,,Mostly Cloudy,240,2013-06-25 14:53:00
11:28 AM,75.2,68.0,78,29.89,4.0,West,15.0,-,0.02,Rain,Light Rain,280,2013-06-25 15:28:00
11:31 AM,73.4,68.0,83,29.89,1.8,West,12.7,-,0.05,Rain,Heavy Rain,270,2013-06-25 15:31:00
11:34 AM,73.4,69.8,88,29.89,3.0,West,12.7,-,0.09,Rain,Heavy Rain,280,2013-06-25 15:34:00
11:47 AM,73.4,69.8,88,29.90,6.0,West,8.1,-,0.12,Rain,Light Rain,260,2013-06-25 15:47:00
11:53 AM,73.9,70.0,87,29.88,6.0,SW,9.2,-,0.12,Rain,Light Rain,230,2013-06-25 15:53:00
12:02 PM,75.2,69.8,83,29.89,7.0,SSW,8.1,-,0.00,,Mostly Cloudy,210,2013-06-25 16:02:00
12:38 PM,75.2,69.8,83,29.88,7.0,SW,10.4,-,0.00,,Overcast,220,2013-06-25 16:38:00
12:53 PM,77.0,68.0,74,29.86,10.0,SSW,8.1,17.3,0.00,,Overcast,210,2013-06-25 16:53:00
1:53 PM,75.9,66.9,74,29.87,10.0,SW,17.3,21.9,N/A,,Mostly Cloudy,220,2013-06-25 17:53:00
2:10 PM,73.4,66.2,78,29.89,10.0,SW,20.7,25.3,0.00,Rain,Light Rain,220,2013-06-25 18:10:00
2:27 PM,71.6,64.4,78,29.88,10.0,SW,17.3,23.0,0.00,,Overcast,220,2013-06-25 18:27:00
2:53 PM,73.0,66.0,79,29.88,10.0,SW,16.1,-,0.00,,Mostly Cloudy,230,2013-06-25 18:53:00
3:53 PM,79.0,66.9,66,29.86,10.0,WSW,18.4,28.8,N/A,,Mostly Cloudy,240,2013-06-25 19:53:00
4:53 PM,78.1,66.9,68,29.83,10.0,SW,18.4,26.5,N/A,,Mostly Cloudy,220,2013-06-25 20:53:00
5:53 PM,77.0,64.0,64,29.80,10.0,SW,13.8,18.4,N/A,,Mostly Cloudy,220,2013-06-25 21:53:00
6:53 PM,75.0,64.0,69,29.79,10.0,SW,11.5,-,N/A,,Mostly Cloudy,230,2013-06-25 22:53:00
7:53 PM,73.0,64.9,76,29.80,10.0,SW,16.1,-,N/A,,Overcast,220,2013-06-25 23:53:00
8:53 PM,71.1,63.0,75,29.81,10.0,WSW,11.5,-,N/A,,Overcast,240,2013-06-26 00:53:00
9:53 PM,70.0,63.0,78,29.81,10.0,WSW,9.2,-,N/A,,Overcast,240,2013-06-26 01:53:00
10:53 PM,70.0,63.0,78,29.84,10.0,SW,8.1,-,N/A,,Overcast,230,2013-06-26 02:53:00
11:53 PM,69.1,63.0,81,29.82,10.0,WSW,13.8,-,N/A,,Overcast,240,2013-06-26 03:53:00